FW0647 Weather Reports


Display with metric or nautical units.
time (UTC)temp
F
wind
direction
speed
MPH
gust
MPH
rain 1hr
in
rain 24hr
in
rain mn
in
humidity
%
barometer
mb
20260506013108 73 360 0.0 5.0 0.00 0.00 0.00 67 1010.4
20260506011559 74 360 0.0 4.0 0.00 0.00 0.00 66 1010.2
20260506010117 75 360 0.0 4.0 0.00 0.00 0.00 66 1010.2
20260506004552 76 360 0.0 6.0 0.00 0.00 0.00 65 1009.8
20260506003052 77 360 0.0 4.0 0.00 0.00 0.00 63 1009.3
20260506001600 77 360 0.0 4.0 0.00 0.00 0.00 62 1009.3
20260506000054 78 360 1.0 9.0 0.00 0.00 0.00 61 1009.4
20260505234550 79 360 0.0 14.0 0.00 0.00 0.00 60 1009.1
20260505233100 81 360 1.0 6.0 0.00 0.00 0.00 59 1008.8
20260505231549 82 360 0.0 8.0 0.00 0.00 0.00 59 1008.7
20260505230054 85 360 0.0 6.0 0.00 0.00 0.00 57 1008.2
20260505224548 87 360 1.0 4.0 0.00 0.00 0.00 50 1008.1
20260505223047 88 360 0.0 4.0 0.00 0.00 0.00 48 1007.9
20260505221546 88 360 0.0 2.0 0.00 0.00 0.00 47 1007.7
20260505220045 93 360 1.0 5.0 0.00 0.00 0.00 44 1007.3
20260505214544 93 355 0.0 2.0 0.00 0.00 0.00 44 1007.6
20260505213041 93 360 0.0 1.0 0.00 0.00 0.00 44 1007.5
20260505211537 92 255 0.0 5.0 0.00 0.00 0.00 43 1007.7
20260505210035 92 360 0.0 4.0 0.00 0.00 0.00 48 1008.0
20260505204534 91 360 1.0 4.0 0.00 0.00 0.00 49 1008.2
20260505203037 90 360 0.0 6.0 0.00 0.00 0.00 50 1008.2
20260505201540 91 360 0.0 5.0 0.00 0.00 0.00 50 1008.5
20260505200032 89 360 1.0 8.0 0.00 0.00 0.00 52 1008.5
20260505194529 90 360 0.0 6.0 0.00 0.00 0.00 53 1008.6
20260505193026 91 360 0.0 5.0 0.00 0.00 0.00 55 1008.7
20260505191523 87 360 0.0 8.0 0.00 0.00 0.00 57 1008.6
20260505190033 87 360 0.0 9.0 0.00 0.00 0.00 60 1008.7
20260505184519 87 228 1.0 7.0 0.00 0.00 0.00 61 1008.8
20260505183016 84 360 1.0 8.0 0.00 0.00 0.00 65 1009.0
20260505181513 83 173 1.0 8.0 0.00 0.00 0.00 66 1009.1
20260505180010 83 360 1.0 12.0 0.00 0.00 0.00 68 1009.1
20260505174510 82 360 1.0 8.0 0.00 0.00 0.00 68 1009.1
20260505173008 81 360 1.0 12.0 0.00 0.00 0.00 70 1009.2
20260505171503 80 360 0.0 6.0 0.00 0.00 0.00 71 1009.3
20260505170003 81 360 0.0 9.0 0.00 0.00 0.00 72 1009.3
20260505164601 80 360 1.0 5.0 0.00 0.00 0.00 72 1009.2
20260505163057 79 360 2.0 12.0 0.00 0.00 0.00 72 1009.4
20260505161616 79 360 2.0 10.0 0.00 0.00 0.00 73 1009.1
20260505153049 76 360 0.0 9.0 0.00 0.00 0.00 76 1008.9
20260505151545 76 360 0.0 8.0 0.00 0.00 0.00 77 1009.0
20260505124522 71 360 1.0 7.0 0.00 0.00 0.00 84 1008.7
20260505123019 71 360 0.0 11.0 0.00 0.00 0.00 85 1008.4
20260505121518 70 360 0.0 4.0 0.00 0.00 0.00 86 1008.5
20260505120038 70 360 0.0 1.0 0.00 0.00 0.00 86 1008.3
20260505114510 70 360 0.0 6.0 0.00 0.00 0.00 87 1008.3
20260505113043 69 360 0.0 0.0 0.00 0.00 0.00 86 1008.4
20260505111534 69 360 0.0 5.0 0.00 0.00 0.00 86 1008.2
20260505101531 70 360 0.0 4.0 0.00 0.00 0.00 86 1008.0
20260505100030 70 360 0.0 6.0 0.00 0.00 0.00 86 1007.8
20260505094528 70 229 0.0 8.0 0.00 0.00 0.00 85 1008.0
20260505093028 70 360 0.0 4.0 0.00 0.00 0.00 85 1008.0
20260505091528 70 360 1.0 6.0 0.00 0.00 0.00 84 1008.1
20260505090037 71 360 1.0 8.0 0.00 0.00 0.00 83 1008.4
20260505084521 71 360 0.0 7.0 0.00 0.00 0.00 83 1008.3
20260505083018 71 360 0.0 9.0 0.00 0.00 0.00 82 1008.4
20260505081516 72 360 1.0 9.0 0.00 0.00 0.00 81 1008.3
20260505080014 72 360 1.0 9.0 0.00 0.00 0.00 80 1008.3
20260505074511 72 360 1.0 7.0 0.00 0.00 0.00 79 1008.7
20260505073017 73 360 1.0 6.0 0.00 0.00 0.00 78 1008.9
20260505071515 73 360 0.0 5.0 0.00 0.00 0.00 77 1009.2
20260505070005 73 180 0.0 5.0 0.00 0.00 0.00 77 1009.3
20260505064513 73 360 0.0 11.0 0.00 0.00 0.00 76 1009.7
20260505063003 73 176 0.0 5.0 0.00 0.00 0.00 75 1009.8
20260505061501 74 179 0.0 6.0 0.00 0.00 0.00 74 1009.9
20260505054627 74 360 1.0 6.0 0.00 0.00 0.00 73 1009.7
20260505053108 75 360 0.0 5.0 0.00 0.00 0.00 72 1009.5
20260505051554 75 360 1.0 4.0 0.00 0.00 0.00 71 1009.7
20260505041557 76 360 0.0 5.0 0.00 0.00 0.00 71 1010.0
20260505040050 76 360 0.0 10.0 0.00 0.00 0.00 71 1010.0
20260505034549 76 360 0.0 4.0 0.00 0.00 0.00 71 1010.0
20260505033050 76 360 0.0 6.0 0.00 0.00 0.00 71 1009.9
20260505031604 76 229 0.0 2.0 0.00 0.00 0.00 70 1010.0
20260505030048 76 360 0.0 2.0 0.00 0.00 0.00 70 1009.9
20260505024549 76 360 0.0 2.0 0.00 0.00 0.00 70 1010.1
20260505023056 76 360 0.0 4.0 0.00 0.00 0.00 70 1009.8
20260505021547 76 360 0.0 2.0 0.00 0.00 0.00 70 1009.8
20260505020045 76 360 0.0 2.0 0.00 0.00 0.00 70 1009.8
20260505014546 77 360 0.0 2.0 0.00 0.00 0.00 69 1009.6